When you browse on this site, cookies collect data to enhance your experience and personalize the content and advertising you see.
Visit our Privacy Policy to learn more. By continuing to use the site, you agree to this use of cookies and data.
  • In Hungary
  • List of Countries
  • For 7 days
  • Water Temperature
  • Weather Map
  • News
  • Weather Widgets
  • user-avatar
    Login

    Hourly Weather Kalib

    Today, 17 February, Monday

    Time Temperature Precipitation Wind Pressure Humidity
    00:00 -11°C° 0 mm 1 mps 584 mmHg 73%
    01:00 -11°C° 0 mm 1 mps 583 mmHg 70%
    02:00 -11°C° 0 mm 1 mps 583 mmHg 68%
    03:00 -12°C° 0 mm 1 mps 583 mmHg 66%
    04:00 -11°C° 0 mm 1 mps 583 mmHg 64%
    05:00 -11°C° 0 mm 1 mps 584 mmHg 62%
    06:00 -11°C° 0 mm 1 mps 584 mmHg 60%
    07:00 -10°C° 0 mm 1 mps 585 mmHg 62%
    08:00 -8°C° 0 mm 1 mps 586 mmHg 64%
    09:00 -7°C° 0 mm 1 mps 587 mmHg 65%
    10:00 -6°C° 0 mm 1 mps 587 mmHg 67%
    11:00 -4°C° 0 mm 1 mps 587 mmHg 68%
    12:00 -4°C° 0 mm 1 mps 587 mmHg 69%
    13:00 -4°C° 0 mm 1 mps 587 mmHg 76%
    14:00 -4°C° 0 mm 1 mps 587 mmHg 82%
    15:00 -4°C° 0 mm 1 mps 587 mmHg 89%
    16:00 -6°C° 0 mm 1 mps 586 mmHg 90%
    17:00 -7°C° 0 mm 1 mps 586 mmHg 91%
    18:00 -9°C° 0 mm 1 mps 585 mmHg 91%
    19:00 -9°C° 0 mm 1 mps 585 mmHg 88%
    20:00 -9°C° 0 mm 1 mps 585 mmHg 84%
    21:00 -10°C° 0 mm 2 mps 585 mmHg 80%
    22:00 -10°C° 0 mm 2 mps 585 mmHg 79%
    23:00 -10°C° 0 mm 2 mps 585 mmHg 78%

    Tomorrow, 18 February, Tuesday

    Time Temperature Precipitation Wind Pressure Humidity
    00:00 -10°C° 0 mm 2 mps 585 mmHg 77%
    01:00 -9°C° 0 mm 2 mps 585 mmHg 73%
    02:00 -9°C° 0 mm 2 mps 585 mmHg 69%
    03:00 -8°C° 0 mm 2 mps 585 mmHg 65%
    04:00 -8°C° 0 mm 2 mps 585 mmHg 63%
    05:00 -8°C° 0 mm 2 mps 585 mmHg 60%
    06:00 -6°C° 0 mm 1 mps 585 mmHg 58%
    07:00 -5°C° 0 mm 2 mps 586 mmHg 60%
    08:00 -3°C° 0 mm 2 mps 587 mmHg 63%
    09:00 -2°C° 0 mm 2 mps 588 mmHg 65%
    10:00 -1°C° 0 mm 2 mps 588 mmHg 72%
    11:00 +1°C° 0 mm 2 mps 588 mmHg 78%
    12:00 +2°C° 0 mm 2 mps 588 mmHg 84%
    13:00 +2°C° 0 mm 2 mps 588 mmHg 82%
    14:00 +2°C° 0 mm 2 mps 587 mmHg 80%
    15:00 +2°C° 0 mm 2 mps 587 mmHg 78%
    16:00 -1°C° 0 mm 3 mps 586 mmHg 69%
    17:00 -2°C° 0 mm 3 mps 585 mmHg 60%
    18:00 -5°C° 0 mm 4 mps 584 mmHg 51%
    19:00 -5°C° 0 mm 4 mps 584 mmHg 48%
    20:00 -5°C° 0 mm 4 mps 583 mmHg 45%
    21:00 -5°C° 0 mm 4 mps 583 mmHg 42%
    22:00 -5°C° 0 mm 4 mps 583 mmHg 42%
    23:00 -5°C° 0 mm 4 mps 583 mmHg 42%

    Day after tomorrow, 19 February, Wednesday

    Time Temperature Precipitation Wind Pressure Humidity
    00:00 -5°C° 0 mm 4 mps 582 mmHg 42%
    01:00 -5°C° 0 mm 4 mps 582 mmHg 41%
    02:00 -5°C° 0 mm 4 mps 582 mmHg 40%
    03:00 -5°C° 0 mm 4 mps 581 mmHg 39%
    04:00 -5°C° 0 mm 4 mps 581 mmHg 37%
    05:00 -5°C° 0 mm 4 mps 581 mmHg 34%
    06:00 -5°C° 0 mm 3 mps 581 mmHg 31%
    07:00 -4°C° 0 mm 3 mps 582 mmHg 36%
    08:00 -1°C° 0 mm 2 mps 582 mmHg 42%
    09:00 +1°C° 0 mm 2 mps 583 mmHg 48%
    10:00 +3°C° 0 mm 1 mps 583 mmHg 55%
    11:00 +3°C° 0 mm 1 mps 583 mmHg 63%
    12:00 +3°C° 0 mm 0 mps 583 mmHg 71%
    13:00 +3°C° 0 mm 0 mps 583 mmHg 71%
    14:00 +3°C° 0 mm 0 mps 582 mmHg 71%
    15:00 +2°C° 0 mm 0 mps 582 mmHg 72%
    16:00 +1°C° 0 mm 1 mps 581 mmHg 66%
    17:00 -1°C° 0 mm 1 mps 580 mmHg 61%
    18:00 -3°C° 0 mm 1 mps 579 mmHg 55%
    19:00 -3°C° 0 mm 1 mps 579 mmHg 51%
    20:00 -5°C° 0 mm 2 mps 579 mmHg 47%
    21:00 -5°C° 0 mm 2 mps 579 mmHg 43%
    22:00 -5°C° 0 mm 2 mps 579 mmHg 43%
    23:00 -5°C° 0 mm 2 mps 579 mmHg 43%

    20 February, Thursday

    Time Temperature Precipitation Wind Pressure Humidity
    00:00 -5°C° 0 mm 2 mps 578 mmHg 42%
    01:00 -6°C° 0 mm 2 mps 578 mmHg 42%
    02:00 -4°C° 0 mm 1 mps 578 mmHg 42%
    03:00 -4°C° 0 mm 1 mps 578 mmHg 42%
    04:00 -4°C° 0 mm 1 mps 578 mmHg 43%
    05:00 -4°C° 0 mm 1 mps 578 mmHg 44%
    06:00 -4°C° 0 mm 1 mps 578 mmHg 46%
    07:00 -3°C° 0 mm 1 mps 578 mmHg 49%
    08:00 -1°C° 0 mm 1 mps 579 mmHg 52%
    09:00 -1°C° 0 mm 0 mps 580 mmHg 55%
    10:00 -1°C° 0 mm 0 mps 580 mmHg 59%
    11:00 +1°C° 0 mm 1 mps 580 mmHg 63%
    12:00 +1°C° 0 mm 1 mps 580 mmHg 67%
    13:00 +1°C° 0 mm 1 mps 579 mmHg 72%
    14:00 +1°C° 0 mm 1 mps 579 mmHg 77%
    15:00 +1°C° 0 mm 1 mps 579 mmHg 82%
    16:00 -1°C° 0 mm 1 mps 578 mmHg 84%
    17:00 -2°C° 0 mm 1 mps 577 mmHg 87%
    18:00 -3°C° 0 mm 1 mps 577 mmHg 89%
    19:00 -4°C° 0 mm 1 mps 577 mmHg 87%
    20:00 -4°C° 0 mm 1 mps 577 mmHg 85%
    21:00 -4°C° 0 mm 1 mps 577 mmHg 83%
    22:00 -4°C° 0 mm 1 mps 577 mmHg 84%
    23:00 -4°C° 0 mm 1 mps 576 mmHg 84%

    21 February, Friday

    Time Temperature Precipitation Wind Pressure Humidity
    00:00 -4°C° 0 mm 1 mps 576 mmHg 85%
    01:00 -6°C° 0 mm 2 mps 576 mmHg 86%
    02:00 -6°C° 0 mm 2 mps 576 mmHg 86%
    03:00 -6°C° 0 mm 2 mps 576 mmHg 87%
    04:00 -6°C° 0 mm 2 mps 576 mmHg 86%
    05:00 -6°C° 0 mm 2 mps 576 mmHg 85%
    06:00 -6°C° 0 mm 2 mps 576 mmHg 85%
    07:00 -5°C° 0 mm 2 mps 577 mmHg 84%
    08:00 -4°C° 0 mm 2 mps 578 mmHg 84%
    09:00 -1°C° 0 mm 1 mps 579 mmHg 84%
    16:00 -3°C° 0 mm 2 mps 578 mmHg 84%
    17:00 -4°C° 0 mm 2 mps 578 mmHg 85%
    18:00 -6°C° 0 mm 2 mps 577 mmHg 86%
    19:00 -7°C° 0 mm 3 mps 577 mmHg 84%
    20:00 -7°C° 0 mm 3 mps 577 mmHg 82%
    21:00 -8°C° 0 mm 3 mps 577 mmHg 80%
    22:00 -8°C° 0 mm 3 mps 577 mmHg 80%
    23:00 -8°C° 0 mm 3 mps 577 mmHg 80%

    22 February, Saturday

    Time Temperature Precipitation Wind Pressure Humidity
    00:00 -8°C° 0 mm 3 mps 577 mmHg 81%
    01:00 -9°C° 0 mm 3 mps 577 mmHg 82%
    02:00 -9°C° 0 mm 3 mps 578 mmHg 83%
    03:00 -9°C° 0 mm 3 mps 578 mmHg 84%
    04:00 -9°C° 0 mm 3 mps 578 mmHg 82%
    05:00 -9°C° 0 mm 3 mps 578 mmHg 81%
    06:00 -9°C° 0 mm 3 mps 578 mmHg 79%
    07:00 -7°C° 0 mm 2 mps 579 mmHg 78%
    08:00 -5°C° 0 mm 2 mps 580 mmHg 76%
    09:00 -4°C° 0 mm 2 mps 581 mmHg 75%
    10:00 -3°C° 0 mm 2 mps 581 mmHg 75%
    11:00 -3°C° 0 mm 2 mps 581 mmHg 74%
    12:00 -2°C° 0 mm 2 mps 581 mmHg 73%
    13:00 -2°C° 0 mm 2 mps 581 mmHg 75%
    14:00 -2°C° 0 mm 2 mps 581 mmHg 77%
    15:00 -2°C° 0 mm 2 mps 580 mmHg 79%
    16:00 -3°C° 0 mm 2 mps 580 mmHg 80%
    17:00 -5°C° 0 mm 2 mps 579 mmHg 82%
    18:00 -6°C° 0 mm 2 mps 579 mmHg 83%
    19:00 -6°C° 0 mm 2 mps 579 mmHg 83%
    20:00 -6°C° 0 mm 2 mps 579 mmHg 83%
    21:00 -7°C° 0 mm 2 mps 579 mmHg 82%
    22:00 -7°C° 0 mm 2 mps 579 mmHg 84%
    23:00 -7°C° 0 mm 2 mps 579 mmHg 86%
    Show more